| time (UTC) | temp F | wind direction | speed knots | gust knots | rain 1hr in | rain 24hr in | rain mn in | humidity % | barometer mb |
| 20260510104934 | 61 | 16 | 7.0 | 13.9 | 0.00 | 0.00 | 0.00 | 62 | 1017.6 |
| 20260510104431 | 61 | 33 | 5.2 | 13.0 | 0.00 | 0.00 | 0.00 | 62 | 1017.7 |
| 20260510103928 | 61 | 34 | 1.7 | 10.4 | 0.00 | 0.00 | 0.00 | 62 | 1017.5 |
| 20260510103426 | 61 | 57 | 2.6 | 10.4 | 0.00 | 0.00 | 0.00 | 62 | 1017.4 |
| 20260510102920 | 61 | 72 | 1.7 | 8.7 | 0.00 | 0.00 | 0.00 | 62 | 1017.2 |
| 20260510102416 | 61 | 11 | 4.3 | 13.0 | 0.00 | 0.00 | 0.00 | 62 | 1017.3 |
| 20260510101914 | 61 | 53 | 3.5 | 13.0 | 0.00 | 0.00 | 0.00 | 62 | 1017.2 |
| 20260510101411 | 61 | 39 | 4.3 | 10.4 | 0.00 | 0.00 | 0.00 | 62 | 1017.1 |
| 20260510100908 | 61 | 30 | 7.8 | 16.5 | 0.00 | 0.00 | 0.00 | 62 | 1017.2 |
| 20260510100400 | 61 | 33 | 3.5 | 7.8 | 0.00 | 0.00 | 0.00 | 62 | 1016.9 |
| 20260510095856 | 61 | 77 | 1.7 | 11.3 | 0.00 | 0.00 | 0.00 | 62 | 1016.9 |
| 20260510095351 | 61 | 62 | 5.2 | 13.9 | 0.00 | 0.00 | 0.00 | 61 | 1016.9 |
| 20260510094851 | 61 | 59 | 2.6 | 10.4 | 0.00 | 0.00 | 0.00 | 62 | 1016.5 |
| 20260510094346 | 61 | 40 | 3.5 | 10.4 | 0.00 | 0.00 | 0.00 | 62 | 1016.6 |
| 20260510093842 | 61 | 53 | 3.5 | 13.9 | 0.00 | 0.00 | 0.00 | 61 | 1016.4 |
| 20260510093338 | 62 | 102 | 2.6 | 12.2 | 0.00 | 0.00 | 0.00 | 61 | 1016.3 |
| 20260510092834 | 62 | 19 | 9.6 | 13.9 | 0.00 | 0.00 | 0.00 | 61 | 1016.2 |
| 20260510092331 | 62 | 84 | 2.6 | 8.7 | 0.00 | 0.00 | 0.00 | 61 | 1016.3 |
| 20260510091827 | 62 | 19 | 4.3 | 8.7 | 0.00 | 0.00 | 0.00 | 61 | 1016.3 |
| 20260510091324 | 62 | 37 | 7.0 | 14.8 | 0.00 | 0.00 | 0.00 | 61 | 1016.2 |
| 20260510090820 | 62 | 44 | 4.3 | 13.0 | 0.00 | 0.00 | 0.00 | 61 | 1016.4 |
| 20260510090317 | 62 | 51 | 6.1 | 10.4 | 0.00 | 0.00 | 0.00 | 62 | 1016.1 |
| 20260510085812 | 62 | 70 | 3.5 | 11.3 | 0.00 | 0.00 | 0.00 | 63 | 1016.3 |
| 20260510085307 | 62 | 32 | 3.5 | 10.4 | 0.00 | 0.00 | 0.00 | 63 | 1016.2 |
| 20260510084803 | 62 | 17 | 6.1 | 12.2 | 0.00 | 0.00 | 0.00 | 62 | 1016.2 |
| 20260510084300 | 62 | 38 | 3.5 | 7.0 | 0.00 | 0.00 | 0.00 | 63 | 1016.3 |
| 20260510083757 | 62 | 32 | 5.2 | 8.7 | 0.00 | 0.00 | 0.00 | 62 | 1016.1 |
| 20260510083254 | 62 | 54 | 2.6 | 13.0 | 0.00 | 0.00 | 0.00 | 63 | 1016.0 |
| 20260510082749 | 62 | 20 | 4.3 | 9.6 | 0.00 | 0.00 | 0.00 | 63 | 1016.1 |
| 20260510082246 | 62 | 153 | 0.9 | 9.6 | 0.00 | 0.00 | 0.00 | 64 | 1016.1 |
| 20260510081745 | 63 | 1 | 5.2 | 7.8 | 0.00 | 0.00 | 0.00 | 63 | 1016.1 |
| 20260510081242 | 63 | 38 | 6.1 | 7.8 | 0.00 | 0.00 | 0.00 | 63 | 1015.9 |
| 20260510080737 | 63 | 16 | 7.0 | 10.4 | 0.00 | 0.00 | 0.00 | 63 | 1015.9 |
| 20260510080232 | 63 | 354 | 6.1 | 8.7 | 0.00 | 0.00 | 0.00 | 63 | 1016.1 |
| 20260510075729 | 64 | 12 | 2.6 | 7.8 | 0.00 | 0.00 | 0.00 | 63 | 1015.7 |
| 20260510075227 | 64 | 23 | 3.5 | 6.1 | 0.00 | 0.00 | 0.00 | 62 | 1015.7 |
| 20260510074724 | 64 | 24 | 3.5 | 6.1 | 0.00 | 0.00 | 0.00 | 61 | 1015.6 |
| 20260510074221 | 64 | 43 | 3.5 | 4.3 | 0.00 | 0.00 | 0.00 | 61 | 1015.8 |
| 20260510073717 | 65 | 41 | 1.7 | 4.3 | 0.00 | 0.00 | 0.00 | 60 | 1015.7 |
| 20260510073212 | 65 | 29 | 0.9 | 6.1 | 0.00 | 0.00 | 0.00 | 60 | 1015.8 |
| 20260510072709 | 65 | 54 | 1.7 | 9.6 | 0.00 | 0.00 | 0.00 | 60 | 1015.6 |
| 20260510072206 | 65 | 20 | 2.6 | 6.1 | 0.00 | 0.00 | 0.00 | 59 | 1015.7 |
| 20260510071702 | 65 | 47 | 2.6 | 4.3 | 0.00 | 0.00 | 0.00 | 60 | 1015.7 |
| 20260510071159 | 65 | 39 | 2.6 | 4.3 | 0.00 | 0.00 | 0.00 | 60 | 1015.4 |
| 20260510070656 | 65 | 41 | 1.7 | 5.2 | 0.00 | 0.00 | 0.00 | 60 | 1015.4 |
| 20260510070154 | 65 | 46 | 2.6 | 4.3 | 0.00 | 0.00 | 0.00 | 60 | 1015.4 |
| 20260510065649 | 66 | 42 | 2.6 | 5.2 | 0.00 | 0.00 | 0.00 | 59 | 1015.3 |
| 20260510065145 | 66 | 30 | 2.6 | 6.1 | 0.00 | 0.00 | 0.00 | 59 | 1015.2 |
| 20260510064642 | 66 | 36 | 2.6 | 2.6 | 0.00 | 0.00 | 0.00 | 59 | 1015.2 |
| 20260510064139 | 66 | 34 | 2.6 | 3.5 | 0.00 | 0.00 | 0.00 | 59 | 1015.3 |
| 20260510063636 | 66 | 53 | 1.7 | 2.6 | 0.00 | 0.00 | 0.00 | 59 | 1015.3 |
| 20260510063133 | 66 | 41 | 2.6 | 5.2 | 0.00 | 0.00 | 0.00 | 59 | 1015.3 |
| 20260510062629 | 67 | 76 | 0.9 | 4.3 | 0.00 | 0.00 | 0.00 | 58 | 1015.3 |
| 20260510062125 | 67 | 45 | 3.5 | 5.2 | 0.00 | 0.00 | 0.00 | 57 | 1015.2 |
| 20260510061620 | 67 | 63 | 3.5 | 6.1 | 0.00 | 0.00 | 0.00 | 57 | 1015.0 |
| 20260510061118 | 67 | 24 | 2.6 | 6.1 | 0.00 | 0.00 | 0.00 | 57 | 1015.0 |
| 20260510060614 | 67 | 26 | 1.7 | 7.8 | 0.00 | 0.00 | 0.00 | 56 | 1014.6 |
| 20260510060111 | 67 | 48 | 2.6 | 4.3 | 0.00 | 0.00 | 0.00 | 56 | 1014.5 |
| 20260510055607 | 67 | 36 | 3.5 | 7.8 | 0.00 | 0.00 | 0.00 | 56 | 1014.6 |
| 20260510055105 | 68 | 28 | 3.5 | 6.1 | 0.00 | 0.00 | 0.00 | 56 | 1014.2 |
| 20260510054600 | 68 | 14 | 3.5 | 6.1 | 0.00 | 0.00 | 0.00 | 55 | 1014.2 |
| 20260510054055 | 68 | 41 | 2.6 | 4.3 | 0.00 | 0.00 | 0.00 | 55 | 1014.4 |
| 20260510053555 | 68 | 41 | 4.3 | 6.1 | 0.00 | 0.00 | 0.00 | 55 | 1014.0 |
| 20260510053052 | 69 | 34 | 4.3 | 7.0 | 0.00 | 0.00 | 0.00 | 54 | 1014.0 |
| 20260510052548 | 69 | 33 | 4.3 | 7.0 | 0.00 | 0.00 | 0.00 | 54 | 1014.0 |
| 20260510052044 | 69 | 14 | 3.5 | 8.7 | 0.00 | 0.00 | 0.00 | 54 | 1014.2 |
| 20260510051540 | 69 | 18 | 3.5 | 9.6 | 0.00 | 0.00 | 0.00 | 53 | 1014.2 |
| 20260510051037 | 69 | 5 | 2.6 | 7.0 | 0.00 | 0.00 | 0.00 | 53 | 1013.9 |
| 20260510050534 | 70 | 20 | 3.5 | 6.1 | 0.00 | 0.00 | 0.00 | 52 | 1013.9 |
| 20260510050031 | 70 | 355 | 4.3 | 5.2 | 0.00 | 0.00 | 0.00 | 51 | 1013.8 |
| 20260510045528 | 70 | 0 | 4.3 | 6.1 | 0.00 | 0.00 | 0.00 | 51 | 1013.7 |
| 20260510045024 | 69 | 24 | 1.7 | 3.5 | 0.00 | 0.00 | 0.00 | 54 | 1013.6 |
| 20260510044521 | 68 | 7 | 2.6 | 3.5 | 0.00 | 0.00 | 0.00 | 55 | 1013.7 |
| 20260510044019 | 68 | 7 | 0.0 | 0.9 | 0.00 | 0.00 | 0.00 | 54 | 1013.5 |
| 20260510043514 | 69 | 155 | 1.7 | 4.3 | 0.00 | 0.00 | 0.00 | 54 | 1013.8 |
| 20260510043010 | 69 | 37 | 0.0 | 2.6 | 0.00 | 0.00 | 0.00 | 53 | 1013.9 |
| 20260510042504 | 68 | 351 | 0.0 | 0.9 | 0.00 | 0.00 | 0.00 | 56 | 1014.0 |
| 20260510041958 | 69 | 64 | 1.7 | 2.6 | 0.00 | 0.00 | 0.00 | 55 | 1013.8 |
| 20260510041456 | 68 | 61 | 0.9 | 2.6 | 0.00 | 0.00 | 0.00 | 55 | 1013.9 |
| 20260510040954 | 68 | 8 | 1.7 | 2.6 | 0.00 | 0.00 | 0.00 | 56 | 1014.0 |
| 20260510040450 | 68 | 346 | 0.9 | 1.7 | 0.00 | 0.00 | 0.00 | 57 | 1013.9 |
| 20260510035946 | 68 | 322 | 0.0 | 0.9 | 0.00 | 0.00 | 0.00 | 57 | 1013.8 |
| 20260510035442 | 69 | 304 | 0.0 | 0.0 | 0.00 | 0.00 | 0.00 | 55 | 1013.8 |
| 20260510034937 | 69 | 269 | 0.0 | 0.0 | 0.00 | 0.00 | 0.00 | 54 | 1013.8 |
| 20260510034436 | 70 | 279 | 0.0 | 0.9 | 0.00 | 0.00 | 0.00 | 50 | 1013.6 |
| 20260510033932 | 70 | 16 | 0.0 | 0.9 | 0.00 | 0.00 | 0.00 | 48 | 1013.5 |
| 20260510033428 | 71 | 132 | 0.0 | 2.6 | 0.00 | 0.00 | 0.00 | 47 | 1013.4 |
| 20260510032925 | 71 | 117 | 0.0 | 1.7 | 0.00 | 0.00 | 0.00 | 47 | 1013.5 |
| 20260510032422 | 72 | 142 | 1.7 | 2.6 | 0.00 | 0.00 | 0.00 | 45 | 1013.2 |
| 20260510031917 | 72 | 149 | 1.7 | 2.6 | 0.00 | 0.00 | 0.00 | 45 | 1013.1 |
| 20260510031412 | 72 | 166 | 1.7 | 2.6 | 0.00 | 0.00 | 0.00 | 45 | 1013.1 |
| 20260510030907 | 72 | 170 | 1.7 | 4.3 | 0.00 | 0.00 | 0.00 | 45 | 1013.1 |
| 20260510030404 | 72 | 146 | 2.6 | 2.6 | 0.00 | 0.00 | 0.00 | 45 | 1012.8 |
| 20260510025901 | 72 | 157 | 0.9 | 2.6 | 0.00 | 0.00 | 0.00 | 44 | 1013.1 |
| 20260510025359 | 72 | 144 | 0.9 | 2.6 | 0.00 | 0.00 | 0.00 | 47 | 1013.3 |
| 20260510024856 | 71 | 158 | 0.0 | 3.5 | 0.00 | 0.00 | 0.00 | 50 | 1013.3 |
| 20260510024352 | 70 | 126 | 0.0 | 1.7 | 0.00 | 0.00 | 0.00 | 55 | 1013.0 |
| 20260510023848 | 71 | 129 | 1.7 | 2.6 | 0.00 | 0.00 | 0.00 | 55 | 1013.2 |
| 20260510023345 | 70 | 66 | 0.0 | 0.9 | 0.00 | 0.00 | 0.00 | 53 | 1012.9 |
| 20260510022842 | 71 | 154 | 0.0 | 1.7 | 0.00 | 0.00 | 0.00 | 56 | 1012.9 |
| 20260510022341 | 71 | 112 | 1.7 | 2.6 | 0.00 | 0.00 | 0.00 | 54 | 1013.2 |
| 20260510021840 | 72 | 124 | 0.0 | 1.7 | 0.00 | 0.00 | 0.00 | 54 | 1013.3 |
| 20260510021339 | 73 | 339 | 0.9 | 2.6 | 0.00 | 0.00 | 0.00 | 49 | 1013.3 |
| 20260510020835 | 73 | 15 | 1.7 | 4.3 | 0.00 | 0.00 | 0.00 | 46 | 1013.5 |
| 20260510020335 | 75 | 32 | 0.0 | 1.7 | 0.00 | 0.00 | 0.00 | 41 | 1013.2 |
| 20260510015831 | 75 | 3 | 2.6 | 3.5 | 0.00 | 0.00 | 0.00 | 39 | 1013.5 |
| 20260510015327 | 76 | 27 | 4.3 | 7.0 | 0.00 | 0.00 | 0.00 | 37 | 1013.5 |
| 20260510014822 | 77 | 349 | 2.6 | 4.3 | 0.00 | 0.00 | 0.00 | 34 | 1013.6 |
| 20260510014320 | 77 | 343 | 3.5 | 6.1 | 0.00 | 0.00 | 0.00 | 34 | 1013.2 |
| 20260510013815 | 77 | 279 | 4.3 | 6.1 | 0.00 | 0.00 | 0.00 | 37 | 1013.2 |
| 20260510013311 | 77 | 294 | 1.7 | 2.6 | 0.00 | 0.00 | 0.00 | 35 | 1012.7 |
| 20260510012806 | 77 | 343 | 0.0 | 1.7 | 0.00 | 0.00 | 0.00 | 36 | 1012.4 |
| 20260510012301 | 77 | 341 | 1.7 | 2.6 | 0.00 | 0.00 | 0.00 | 35 | 1012.2 |
| 20260510011801 | 77 | 235 | 0.0 | 2.6 | 0.00 | 0.00 | 0.00 | 34 | 1011.9 |
| 20260510011257 | 78 | 161 | 1.7 | 2.6 | 0.00 | 0.00 | 0.00 | 34 | 1011.8 |
| 20260510010754 | 78 | 133 | 2.6 | 4.3 | 0.00 | 0.00 | 0.00 | 33 | 1011.4 |
| 20260510010250 | 78 | 155 | 0.9 | 5.2 | 0.00 | 0.00 | 0.00 | 33 | 1011.0 |
| 20260510005747 | 78 | 180 | 0.0 | 4.3 | 0.00 | 0.00 | 0.00 | 32 | 1010.7 |
| 20260510005243 | 78 | 273 | 0.9 | 4.3 | 0.00 | 0.00 | 0.00 | 32 | 1010.4 |
| 20260510004742 | 78 | 160 | 1.7 | 5.2 | 0.00 | 0.00 | 0.00 | 32 | 1010.3 |
| 20260510004239 | 79 | 164 | 0.0 | 2.6 | 0.00 | 0.00 | 0.00 | 32 | 1010.1 |
| 20260510003736 | 79 | 114 | 0.0 | 4.3 | 0.00 | 0.00 | 0.00 | 32 | 1009.9 |
| 20260510003232 | 80 | 160 | 1.7 | 7.8 | 0.00 | 0.00 | 0.00 | 31 | 1010.0 |
| 20260510002731 | 80 | 148 | 1.7 | 3.5 | 0.00 | 0.00 | 0.00 | 30 | 1009.8 |
| 20260510002229 | 80 | 164 | 7.0 | 7.0 | 0.00 | 0.00 | 0.00 | 29 | 1009.7 |
| 20260510001725 | 81 | 174 | 4.3 | 8.7 | 0.00 | 0.00 | 0.00 | 29 | 1009.6 |
| 20260510001224 | 82 | 143 | 1.7 | 6.1 | 0.00 | 0.00 | 0.00 | 28 | 1009.5 |
| 20260510000720 | 81 | 155 | 3.5 | 4.3 | 0.00 | 0.00 | 0.00 | 27 | 1009.5 |
| 20260510000218 | 82 | 138 | 2.6 | 8.7 | 0.00 | 0.00 | 0.00 | 27 | 1009.5 |
| 20260509235714 | 82 | 172 | 2.6 | 6.1 | 0.00 | 0.00 | 0.00 | 27 | 1009.3 |
| 20260509235210 | 83 | 157 | 1.7 | 3.5 | 0.00 | 0.00 | 0.00 | 26 | 1009.5 |
| 20260509234706 | 83 | 143 | 2.6 | 6.1 | 0.00 | 0.00 | 0.00 | 25 | 1009.7 |
| 20260509234203 | 83 | 147 | 1.7 | 6.1 | 0.00 | 0.00 | 0.00 | 26 | 1009.8 |
| 20260509233702 | 83 | 182 | 2.6 | 7.0 | 0.00 | 0.00 | 0.00 | 25 | 1009.8 |
| 20260509233159 | 84 | 163 | 1.7 | 4.3 | 0.00 | 0.00 | 0.00 | 25 | 1009.8 |
| 20260509232655 | 84 | 160 | 1.7 | 2.6 | 0.00 | 0.00 | 0.00 | 26 | 1009.8 |
| 20260509232152 | 84 | 217 | 1.7 | 7.0 | 0.00 | 0.00 | 0.00 | 24 | 1009.9 |
| 20260509231648 | 84 | 237 | 1.7 | 8.7 | 0.00 | 0.00 | 0.00 | 24 | 1010.0 |
| 20260509231146 | 85 | 164 | 0.9 | 2.6 | 0.00 | 0.00 | 0.00 | 25 | 1009.9 |
| 20260509230643 | 85 | 138 | 1.7 | 5.2 | 0.00 | 0.00 | 0.00 | 24 | 1010.0 |
| 20260509230140 | 85 | 129 | 6.1 | 6.1 | 0.00 | 0.00 | 0.00 | 24 | 1009.8 |
| 20260509225635 | 85 | 185 | 1.7 | 4.3 | 0.00 | 0.00 | 0.00 | 22 | 1009.8 |
| 20260509225131 | 85 | 180 | 2.6 | 6.1 | 0.00 | 0.00 | 0.00 | 24 | 1009.9 |
| 20260509224626 | 86 | 159 | 3.5 | 4.3 | 0.00 | 0.00 | 0.00 | 22 | 1009.8 |
| 20260509224124 | 86 | 138 | 2.6 | 7.8 | 0.00 | 0.00 | 0.00 | 23 | 1009.8 |
| 20260509223621 | 87 | 186 | 0.0 | 8.7 | 0.00 | 0.00 | 0.00 | 23 | 1009.6 |
| 20260509223118 | 87 | 149 | 2.6 | 7.0 | 0.00 | 0.00 | 0.00 | 23 | 1009.9 |
| 20260509222614 | 87 | 151 | 1.7 | 6.1 | 0.00 | 0.00 | 0.00 | 22 | 1009.7 |
| 20260509222110 | 88 | 3 | 2.6 | 5.2 | 0.00 | 0.00 | 0.00 | 22 | 1009.8 |
| 20260509221606 | 87 | 164 | 0.0 | 4.3 | 0.00 | 0.00 | 0.00 | 22 | 1009.7 |
| 20260509221102 | 87 | 164 | 1.7 | 5.2 | 0.00 | 0.00 | 0.00 | 22 | 1009.7 |
| 20260509220558 | 87 | 186 | 6.1 | 8.7 | 0.00 | 0.00 | 0.00 | 22 | 1009.7 |
| 20260509220055 | 87 | 192 | 2.6 | 7.8 | 0.00 | 0.00 | 0.00 | 23 | 1009.7 |
| 20260509215550 | 87 | 218 | 1.7 | 7.8 | 0.00 | 0.00 | 0.00 | 23 | 1009.6 |
| 20260509215048 | 87 | 142 | 1.7 | 7.8 | 0.00 | 0.00 | 0.00 | 23 | 1009.7 |
| 20260509214545 | 88 | 151 | 2.6 | 7.8 | 0.00 | 0.00 | 0.00 | 23 | 1009.6 |
| 20260509214042 | 88 | 163 | 0.9 | 2.6 | 0.00 | 0.00 | 0.00 | 24 | 1009.5 |
| 20260509213537 | 88 | 237 | 0.9 | 4.3 | 0.00 | 0.00 | 0.00 | 22 | 1009.8 |
| 20260509213035 | 87 | 159 | 3.5 | 8.7 | 0.00 | 0.00 | 0.00 | 22 | 1009.7 |
| 20260509212532 | 87 | 192 | 2.6 | 9.6 | 0.00 | 0.00 | 0.00 | 23 | 1009.8 |
| 20260509212029 | 88 | 139 | 4.3 | 6.1 | 0.00 | 0.00 | 0.00 | 22 | 1009.7 |
| 20260509211524 | 89 | 218 | 1.7 | 5.2 | 0.00 | 0.00 | 0.00 | 24 | 1009.9 |
| 20260509211021 | 88 | 153 | 2.6 | 7.0 | 0.00 | 0.00 | 0.00 | 24 | 1009.9 |
| 20260509210518 | 87 | 211 | 0.9 | 7.8 | 0.00 | 0.00 | 0.00 | 22 | 1010.0 |
| 20260509210014 | 87 | 159 | 0.9 | 8.7 | 0.00 | 0.00 | 0.00 | 24 | 1010.0 |
| 20260509205509 | 87 | 196 | 1.7 | 7.8 | 0.00 | 0.00 | 0.00 | 22 | 1010.3 |
| 20260509205005 | 88 | 174 | 2.6 | 6.1 | 0.00 | 0.00 | 0.00 | 23 | 1010.2 |
| 20260509204501 | 89 | 175 | 1.7 | 2.6 | 0.00 | 0.00 | 0.00 | 23 | 1010.3 |
| 20260509203957 | 86 | 208 | 0.9 | 8.7 | 0.00 | 0.00 | 0.00 | 24 | 1010.1 |
| 20260509203453 | 88 | 200 | 2.6 | 6.1 | 0.00 | 0.00 | 0.00 | 22 | 1010.4 |
| 20260509202951 | 88 | 164 | 3.5 | 6.1 | 0.00 | 0.00 | 0.00 | 22 | 1010.4 |
| 20260509202447 | 88 | 209 | 3.5 | 7.0 | 0.00 | 0.00 | 0.00 | 22 | 1010.5 |
| 20260509201942 | 89 | 211 | 4.3 | 5.2 | 0.00 | 0.00 | 0.00 | 21 | 1010.7 |
| 20260509201437 | 90 | 55 | 0.0 | 2.6 | 0.00 | 0.00 | 0.00 | 23 | 1010.7 |
| 20260509200935 | 87 | 345 | 0.9 | 2.6 | 0.00 | 0.00 | 0.00 | 23 | 1010.6 |
| 20260509200434 | 89 | 255 | 0.9 | 5.2 | 0.00 | 0.00 | 0.00 | 21 | 1010.8 |
| 20260509195931 | 89 | 162 | 0.9 | 4.3 | 0.00 | 0.00 | 0.00 | 21 | 1011.0 |
| 20260509195422 | 89 | 212 | 2.6 | 2.6 | 0.00 | 0.00 | 0.00 | 21 | 1010.8 |
| 20260509194920 | 88 | 255 | 0.9 | 4.3 | 0.00 | 0.00 | 0.00 | 21 | 1011.1 |
| 20260509194417 | 87 | 176 | 1.7 | 7.8 | 0.00 | 0.00 | 0.00 | 22 | 1011.0 |
| 20260509193914 | 87 | 192 | 1.7 | 10.4 | 0.00 | 0.00 | 0.00 | 22 | 1011.1 |
| 20260509193413 | 88 | 164 | 1.7 | 6.1 | 0.00 | 0.00 | 0.00 | 23 | 1011.1 |
| 20260509192910 | 87 | 77 | 0.0 | 3.5 | 0.00 | 0.00 | 0.00 | 24 | 1010.9 |
| 20260509192406 | 88 | 333 | 0.0 | 3.5 | 0.00 | 0.00 | 0.00 | 23 | 1011.2 |
| 20260509191901 | 88 | 155 | 0.9 | 2.6 | 0.00 | 0.00 | 0.00 | 22 | 1011.3 |
| 20260509191357 | 87 | 129 | 2.6 | 3.5 | 0.00 | 0.00 | 0.00 | 23 | 1011.4 |
| 20260509190853 | 86 | 181 | 1.7 | 7.0 | 0.00 | 0.00 | 0.00 | 22 | 1011.4 |
| 20260509190350 | 85 | 207 | 1.7 | 8.7 | 0.00 | 0.00 | 0.00 | 23 | 1011.7 |
| 20260509185848 | 86 | 185 | 0.9 | 7.8 | 0.00 | 0.00 | 0.00 | 25 | 1011.3 |
| 20260509185344 | 87 | 168 | 3.5 | 6.1 | 0.00 | 0.00 | 0.00 | 24 | 1011.3 |
| 20260509184842 | 86 | 162 | 3.5 | 7.0 | 0.00 | 0.00 | 0.00 | 24 | 1011.4 |
| 20260509184339 | 86 | 269 | 0.0 | 5.2 | 0.00 | 0.00 | 0.00 | 24 | 1011.6 |
| 20260509183835 | 87 | 238 | 1.7 | 6.1 | 0.00 | 0.00 | 0.00 | 25 | 1011.6 |
| 20260509183330 | 86 | 204 | 1.7 | 4.3 | 0.00 | 0.00 | 0.00 | 24 | 1011.6 |
| 20260509182827 | 85 | 199 | 0.0 | 7.0 | 0.00 | 0.00 | 0.00 | 26 | 1011.7 |
| 20260509182324 | 87 | 240 | 2.6 | 6.1 | 0.00 | 0.00 | 0.00 | 24 | 1011.9 |
| 20260509181821 | 86 | 186 | 0.9 | 3.5 | 0.00 | 0.00 | 0.00 | 27 | 1012.0 |
| 20260509181318 | 85 | 162 | 2.6 | 4.3 | 0.00 | 0.00 | 0.00 | 26 | 1012.0 |
| 20260509180815 | 84 | 218 | 1.7 | 5.2 | 0.00 | 0.00 | 0.00 | 25 | 1011.9 |
| 20260509180312 | 84 | 324 | 1.7 | 9.6 | 0.00 | 0.00 | 0.00 | 28 | 1012.1 |
| 20260509175808 | 84 | 155 | 1.7 | 7.8 | 0.00 | 0.00 | 0.00 | 27 | 1012.2 |
| 20260509175307 | 83 | 139 | 2.6 | 7.8 | 0.00 | 0.00 | 0.00 | 28 | 1012.1 |
| 20260509174801 | 83 | 267 | 1.7 | 1.7 | 0.00 | 0.00 | 0.00 | 29 | 1012.4 |
| 20260509174256 | 82 | 316 | 0.9 | 6.1 | 0.00 | 0.00 | 0.00 | 27 | 1012.3 |
| 20260509173753 | 82 | 121 | 0.9 | 7.0 | 0.00 | 0.00 | 0.00 | 29 | 1012.3 |
| 20260509173248 | 81 | 109 | 0.0 | 6.1 | 0.00 | 0.00 | 0.00 | 28 | 1012.4 |
| 20260509172744 | 82 | 241 | 1.7 | 7.8 | 0.00 | 0.00 | 0.00 | 28 | 1012.5 |
| 20260509172241 | 82 | 180 | 3.5 | 7.0 | 0.00 | 0.00 | 0.00 | 27 | 1012.5 |
| 20260509171736 | 83 | 209 | 1.7 | 7.0 | 0.00 | 0.00 | 0.00 | 27 | 1012.6 |
| 20260509171233 | 83 | 354 | 3.5 | 4.3 | 0.00 | 0.00 | 0.00 | 28 | 1012.5 |
| 20260509170730 | 83 | 173 | 1.7 | 7.8 | 0.00 | 0.00 | 0.00 | 27 | 1012.6 |
| 20260509170226 | 84 | 227 | 2.6 | 5.2 | 0.00 | 0.00 | 0.00 | 27 | 1012.9 |
| 20260509165724 | 84 | 186 | 1.7 | 6.1 | 0.00 | 0.00 | 0.00 | 27 | 1012.8 |
| 20260509165220 | 84 | 274 | 3.5 | 7.0 | 0.00 | 0.00 | 0.00 | 27 | 1012.7 |
| 20260509164716 | 83 | 180 | 1.7 | 8.7 | 0.00 | 0.00 | 0.00 | 27 | 1012.9 |
| 20260509164212 | 84 | 139 | 0.9 | 5.2 | 0.00 | 0.00 | 0.00 | 27 | 1012.9 |
| 20260509163709 | 82 | 159 | 0.9 | 5.2 | 0.00 | 0.00 | 0.00 | 29 | 1012.8 |
| 20260509163206 | 83 | 10 | 1.7 | 8.7 | 0.00 | 0.00 | 0.00 | 28 | 1012.9 |
| 20260509162703 | 82 | 182 | 3.5 | 7.0 | 0.00 | 0.00 | 0.00 | 30 | 1012.9 |
| 20260509162159 | 82 | 169 | 2.6 | 6.1 | 0.00 | 0.00 | 0.00 | 30 | 1012.9 |
| 20260509161654 | 81 | 140 | 2.6 | 7.0 | 0.00 | 0.00 | 0.00 | 33 | 1012.9 |
| 20260509161150 | 80 | 147 | 5.2 | 7.0 | 0.00 | 0.00 | 0.00 | 34 | 1013.0 |
| 20260509160646 | 80 | 151 | 0.9 | 7.8 | 0.00 | 0.00 | 0.00 | 36 | 1012.9 |
| 20260509160142 | 80 | 142 | 2.6 | 5.2 | 0.00 | 0.00 | 0.00 | 35 | 1012.8 |
| 20260509155638 | 80 | 129 | 1.7 | 3.5 | 0.00 | 0.00 | 0.00 | 38 | 1012.7 |
| 20260509155134 | 78 | 149 | 1.7 | 6.1 | 0.00 | 0.00 | 0.00 | 40 | 1012.8 |
| 20260509154630 | 78 | 180 | 0.9 | 4.3 | 0.00 | 0.00 | 0.00 | 40 | 1013.0 |
| 20260509154127 | 77 | 99 | 0.0 | 3.5 | 0.00 | 0.00 | 0.00 | 40 | 1013.0 |
| 20260509153625 | 79 | 213 | 1.7 | 6.1 | 0.00 | 0.00 | 0.00 | 38 | 1012.7 |
| 20260509153121 | 79 | 186 | 0.0 | 3.5 | 0.00 | 0.00 | 0.00 | 37 | 1013.0 |
| 20260509152617 | 78 | 247 | 1.7 | 2.6 | 0.00 | 0.00 | 0.00 | 40 | 1012.9 |
| 20260509152115 | 77 | 178 | 1.7 | 5.2 | 0.00 | 0.00 | 0.00 | 41 | 1012.8 |
| 20260509151611 | 76 | 241 | 0.0 | 6.1 | 0.00 | 0.00 | 0.00 | 42 | 1012.9 |
| 20260509151109 | 75 | 160 | 2.6 | 7.0 | 0.00 | 0.00 | 0.00 | 41 | 1012.8 |
| 20260509150606 | 75 | 199 | 4.3 | 5.2 | 0.00 | 0.00 | 0.00 | 42 | 1012.8 |
| 20260509150104 | 75 | 181 | 1.7 | 4.3 | 0.00 | 0.00 | 0.00 | 46 | 1012.6 |
| 20260509145559 | 74 | 218 | 2.6 | 5.2 | 0.00 | 0.00 | 0.00 | 47 | 1012.5 |
| 20260509145055 | 74 | 161 | 2.6 | 3.5 | 0.00 | 0.00 | 0.00 | 49 | 1012.6 |
| 20260509144552 | 73 | 268 | 0.9 | 2.6 | 0.00 | 0.00 | 0.00 | 51 | 1012.5 |
| 20260509144049 | 73 | 176 | 0.9 | 3.5 | 0.00 | 0.00 | 0.00 | 52 | 1012.5 |
| 20260509143546 | 72 | 131 | 0.0 | 2.6 | 0.00 | 0.00 | 0.00 | 54 | 1012.5 |
| 20260509143038 | 71 | 133 | 2.6 | 3.5 | 0.00 | 0.00 | 0.00 | 54 | 1012.6 |
| 20260509142533 | 70 | 15 | 1.7 | 3.5 | 0.00 | 0.00 | 0.00 | 55 | 1012.5 |
| 20260509142029 | 69 | 134 | 2.6 | 7.0 | 0.00 | 0.00 | 0.00 | 57 | 1012.6 |
| 20260509141526 | 70 | 202 | 4.3 | 6.1 | 0.00 | 0.00 | 0.00 | 56 | 1012.4 |
| 20260509141023 | 69 | 215 | 2.6 | 3.5 | 0.00 | 0.00 | 0.00 | 58 | 1012.6 |
| 20260509140519 | 68 | 144 | 2.6 | 4.3 | 0.00 | 0.00 | 0.00 | 58 | 1012.7 |
| 20260509140018 | 69 | 127 | 2.6 | 4.3 | 0.00 | 0.00 | 0.00 | 59 | 1012.4 |
| 20260509135514 | 68 | 156 | 0.0 | 3.5 | 0.00 | 0.00 | 0.00 | 60 | 1012.4 |
| 20260509135012 | 67 | 103 | 0.0 | 3.5 | 0.00 | 0.00 | 0.00 | 61 | 1012.3 |
| 20260509134509 | 66 | 184 | 2.6 | 4.3 | 0.00 | 0.00 | 0.00 | 63 | 1012.3 |
| 20260509134007 | 65 | 152 | 2.6 | 3.5 | 0.00 | 0.00 | 0.00 | 65 | 1012.4 |
| 20260509133503 | 64 | 160 | 2.6 | 3.5 | 0.00 | 0.00 | 0.00 | 67 | 1012.4 |
| 20260509133001 | 63 | 117 | 0.0 | 3.5 | 0.00 | 0.00 | 0.00 | 69 | 1012.3 |
| 20260509132459 | 62 | 76 | 0.0 | 3.5 | 0.00 | 0.00 | 0.00 | 72 | 1012.5 |
| 20260509131955 | 60 | 37 | 0.9 | 2.6 | 0.00 | 0.00 | 0.00 | 73 | 1012.4 |
| 20260509131453 | 60 | 152 | 0.9 | 2.6 | 0.00 | 0.00 | 0.00 | 75 | 1012.6 |
| 20260509130949 | 59 | 25 | 0.0 | 6.1 | 0.00 | 0.00 | 0.00 | 76 | 1012.4 |
| 20260509130445 | 58 | 136 | 0.0 | 2.6 | 0.00 | 0.00 | 0.00 | 78 | 1012.3 |
| 20260509125942 | 57 | 84 | 0.0 | 2.6 | 0.00 | 0.00 | 0.00 | 79 | 1012.3 |
| 20260509125438 | 57 | 67 | 0.9 | 2.6 | 0.00 | 0.00 | 0.00 | 80 | 1012.2 |
| 20260509124934 | 56 | 151 | 0.9 | 2.6 | 0.00 | 0.00 | 0.00 | 81 | 1012.4 |
| 20260509124432 | 55 | 158 | 1.7 | 2.6 | 0.00 | 0.00 | 0.00 | 82 | 1012.2 |
| 20260509123929 | 55 | 127 | 1.7 | 2.6 | 0.00 | 0.00 | 0.00 | 83 | 1012.2 |
| 20260509123426 | 54 | 86 | 0.0 | 1.7 | 0.00 | 0.00 | 0.00 | 84 | 1012.0 |
| 20260509122922 | 54 | 246 | 0.0 | 1.7 | 0.00 | 0.00 | 0.00 | 86 | 1012.0 |
| 20260509122419 | 52 | 124 | 0.9 | 1.7 | 0.00 | 0.00 | 0.00 | 88 | 1012.1 |
| 20260509121916 | 51 | 116 | 0.0 | 1.7 | 0.00 | 0.00 | 0.00 | 89 | 1012.1 |
| 20260509121413 | 51 | 174 | 0.0 | 2.6 | 0.00 | 0.00 | 0.00 | 89 | 1012.1 |
| 20260509120911 | 50 | 122 | 0.0 | 1.7 | 0.00 | 0.00 | 0.00 | 91 | 1011.9 |
| 20260509120408 | 50 | 73 | 0.0 | 0.9 | 0.00 | 0.00 | 0.00 | 91 | 1012.0 |
| 20260509115906 | 50 | 143 | 0.9 | 2.6 | 0.00 | 0.00 | 0.00 | 91 | 1011.8 |
| 20260509115403 | 50 | 153 | 0.9 | 2.6 | 0.00 | 0.00 | 0.00 | 92 | 1011.9 |
| 20260509114901 | 49 | 107 | 0.0 | 1.7 | 0.00 | 0.00 | 0.00 | 92 | 1011.9 |
| 20260509114359 | 49 | 101 | 0.0 | 1.7 | 0.00 | 0.00 | 0.00 | 92 | 1011.7 |
| 20260509113859 | 48 | 110 | 0.0 | 1.7 | 0.00 | 0.00 | 0.00 | 92 | 1011.3 |
| 20260509113355 | 48 | 304 | 0.0 | 0.9 | 0.00 | 0.00 | 0.00 | 92 | 1011.7 |
| 20260509112852 | 48 | 89 | 0.0 | 1.7 | 0.00 | 0.00 | 0.00 | 91 | 1011.2 |
| 20260509112349 | 48 | 104 | 0.0 | 1.7 | 0.00 | 0.00 | 0.00 | 91 | 1011.3 |
| 20260509111846 | 48 | 142 | 0.0 | 1.7 | 0.00 | 0.00 | 0.00 | 91 | 1011.3 |
| 20260509111343 | 48 | 112 | 0.0 | 0.9 | 0.00 | 0.00 | 0.00 | 91 | 1011.2 |
| 20260509110841 | 48 | 103 | 0.0 | 0.9 | 0.00 | 0.00 | 0.00 | 90 | 1011.2 |
| 20260509110337 | 48 | 66 | 0.0 | 0.9 | 0.00 | 0.00 | 0.00 | 90 | 1011.4 |
| 20260509105835 | 49 | 94 | 0.0 | 0.9 | 0.00 | 0.00 | 0.00 | 89 | 1011.4 |